{"data":{"norad_id":53888,"epoch":"2026-07-01T22:03:41.174784Z","epoch_age_seconds":7046859,"freshness":"OLD","line1":"1 53888U 22119C   26182.91922656  .09024339  12426-4  23368-3 0  9990","line2":"2 53888  53.1966 123.7390 0009035 244.3938 115.6179 16.45149664209590","mean_motion":16.45149664,"eccentricity":0.0009035,"inclination_deg":53.1966,"raan_deg":123.739,"arg_perigee_deg":244.3938,"mean_anomaly_deg":115.6179,"bstar":0.00023368,"rev_number":20959,"period_min":87.530030337714,"perigee_km":146.23933044051,"apogee_km":158.03953995892,"semimajor_km":6530.2764351997,"source":"CELESTRAK","updated_at":"2026-07-02T09:00:32.647082Z"}}